{"data":{"norad_id":67006,"intl_designator":"2025-293D","name":"STARLINK-36156","alt_names":[],"object_type":"PAYLOAD","status":"ACTIVE","operator":null,"country":"US","launch_date":"2025-12-10","launch_site_code":"AFWTR","launch_vehicle":null,"mission":null,"orbit_class":"UNKNOWN","rcs_meters":null,"size_class":null,"mass_kg":null,"dimensions":null,"purposes":["comms"],"wikipedia_slug":null,"has_3d_model":false,"image_url":null,"decayed_at":null,"tle_current":{"epoch":"2026-05-25T01:26:25.867104Z","epoch_age_seconds":66207,"freshness":"FRESH","line1":"1 67006U 25293D   26145.06002161  .00003260  00000+0  28087-3 0  9992","line2":"2 67006  70.0007 262.0463 0003413 269.2747  90.8021 14.98335203 26327","mean_motion":14.98335203,"eccentricity":0.0003413,"inclination_deg":70.0007,"raan_deg":262.0463,"arg_perigee_deg":269.2747,"mean_anomaly_deg":90.8021,"bstar":0.00028087,"rev_number":2632,"period_min":96.10666539215,"perigee_km":569.66770580044,"apogee_km":574.4118964849,"semimajor_km":6950.1768011427,"source":"CELESTRAK","updated_at":"2026-05-25T13:38:21.429818Z"}}}